TimeEET,TemperatureF,Dew PointF,Humidity,Sea Level PressureIn,VisibilityMPH,Wind Direction,Wind SpeedMPH,Gust SpeedMPH,PrecipitationIn,Events,Conditions,WindDirDegrees,DateUTC
12:20 AM,-5.8,-7.6,92,30.27,-9999.0,Calm,Calm,-,N/A,,Clear,0,2013-03-06 22:20:00
12:50 AM,-4.0,-5.8,92,30.27,-9999.0,Variable,1.2,-,N/A,,Clear,0,2013-03-06 22:50:00
1:20 AM,-4.0,-7.6,85,30.27,-9999.0,Variable,1.2,-,N/A,,Clear,0,2013-03-06 23:20:00
1:50 AM,-7.6,-9.4,92,30.27,-9999.0,Variable,1.2,-,N/A,,Clear,0,2013-03-06 23:50:00
2:00 AM,-7,-7,100,,12,SW,1.2,,,,,230,2013-03-07 00:00:00
2:20 AM,-5.8,-7.6,92,30.27,-9999.0,Variable,1.2,-,N/A,,Clear,0,2013-03-07 00:20:00
2:50 AM,-13.0,-14.8,92,30.27,-9999.0,ENE,2.3,-,N/A,,Clear,60,2013-03-07 00:50:00
3:20 AM,-11.2,-14.8,84,30.27,-9999.0,East,2.3,-,N/A,,Clear,80,2013-03-07 01:20:00
3:50 AM,-9.4,-13.0,84,30.27,-9999.0,Calm,Calm,-,N/A,,Clear,0,2013-03-07 01:50:00
4:20 AM,-13.0,-16.6,84,30.27,-9999.0,Calm,Calm,-,N/A,,Clear,0,2013-03-07 02:20:00
4:50 AM,-11.2,-13.0,92,30.30,-9999.0,Variable,1.2,-,N/A,,Clear,0,2013-03-07 02:50:00
5:20 AM,-14.8,-18.4,84,30.30,-9999.0,Variable,2.3,-,N/A,,Clear,0,2013-03-07 03:20:00
5:50 AM,-9.4,-13.0,84,30.30,-9999.0,West,3.5,-,N/A,,Clear,270,2013-03-07 03:50:00
6:20 AM,-9.4,-13.0,84,30.33,-9999.0,Variable,2.3,-,N/A,,Clear,0,2013-03-07 04:20:00
6:50 AM,-7.6,-11.2,84,30.33,-9999.0,Variable,1.2,-,N/A,,Clear,0,2013-03-07 04:50:00
7:20 AM,-0.4,-2.2,92,30.33,-9999.0,Calm,Calm,-,N/A,,Clear,0,2013-03-07 05:20:00
7:50 AM,-9.4,-13.0,84,30.33,-9999.0,ENE,2.3,-,N/A,,Clear,60,2013-03-07 05:50:00
8:00 AM,-10,-11,92,,6,East,2.3,,,,,80,2013-03-07 06:00:00
8:20 AM,-4.0,-7.6,85,30.33,5.0,Variable,1.2,-,N/A,,Unknown,0,2013-03-07 06:20:00
8:50 AM,-0.4,-2.2,92,30.33,5.0,Variable,2.3,-,N/A,,Unknown,0,2013-03-07 06:50:00
9:20 AM,1.4,-0.4,92,30.33,-9999.0,Variable,2.3,-,N/A,,Clear,0,2013-03-07 07:20:00
9:50 AM,10.4,10.4,100,30.33,-9999.0,Calm,Calm,-,N/A,,Clear,0,2013-03-07 07:50:00
10:20 AM,12.2,3.2,67,30.33,-9999.0,Variable,2.3,-,N/A,,Clear,0,2013-03-07 08:20:00
10:50 AM,14.0,5.0,67,30.33,-9999.0,North,3.5,-,N/A,,Clear,10,2013-03-07 08:50:00
11:20 AM,14.0,5.0,67,30.33,-9999.0,NE,6.9,-,N/A,,Clear,40,2013-03-07 09:20:00
11:50 AM,15.8,8.6,73,30.33,-9999.0,NE,11.5,-,N/A,,Clear,50,2013-03-07 09:50:00
12:20 PM,15.8,6.8,68,30.30,-9999.0,East,12.7,-,N/A,,Clear,90,2013-03-07 10:20:00
12:50 PM,15.8,8.6,73,30.30,-9999.0,East,11.5,-,N/A,,Clear,90,2013-03-07 10:50:00
1:20 PM,15.8,8.6,73,30.30,-9999.0,ENE,13.8,-,N/A,,Clear,60,2013-03-07 11:20:00
1:50 PM,17.6,8.6,68,30.30,-9999.0,East,15.0,-,N/A,,Clear,80,2013-03-07 11:50:00
2:00 PM,17,9,58,,12,East,15.0,,,,,80,2013-03-07 12:00:00
2:20 PM,17.6,8.6,68,30.27,-9999.0,East,10.4,-,N/A,,Clear,100,2013-03-07 12:20:00
2:50 PM,17.6,8.6,68,30.27,-9999.0,East,12.7,-,N/A,,Clear,80,2013-03-07 12:50:00
3:20 PM,17.6,8.6,68,30.27,-9999.0,East,13.8,-,N/A,,Clear,80,2013-03-07 13:20:00
3:50 PM,15.8,6.8,68,30.27,-9999.0,East,17.3,-,N/A,,Clear,80,2013-03-07 13:50:00
4:20 PM,15.8,6.8,68,30.27,-9999.0,East,12.7,-,N/A,,Clear,90,2013-03-07 14:20:00
4:50 PM,14.0,5.0,67,30.27,-9999.0,East,13.8,-,N/A,,Clear,80,2013-03-07 14:50:00
5:20 PM,12.2,5.0,73,30.27,-9999.0,East,8.1,-,N/A,,Clear,90,2013-03-07 15:20:00
5:50 PM,12.2,5.0,73,30.27,-9999.0,ESE,11.5,-,N/A,,Clear,110,2013-03-07 15:50:00
6:20 PM,14.0,5.0,67,30.27,-9999.0,East,16.1,-,N/A,,Clear,90,2013-03-07 16:20:00
6:50 PM,12.2,3.2,67,30.30,-9999.0,NE,11.5,-,N/A,,Clear,40,2013-03-07 16:50:00
7:20 PM,5.0,-0.4,78,30.30,-9999.0,SE,9.2,-,N/A,,Clear,130,2013-03-07 17:20:00
7:50 PM,3.2,-0.4,85,30.30,-9999.0,SE,3.5,-,N/A,,Clear,130,2013-03-07 17:50:00
8:00 PM,3,2,94,,6,SE,3.5,,,,,140,2013-03-07 18:00:00
8:20 PM,5.0,-0.4,78,30.30,-9999.0,Variable,1.2,-,N/A,,Clear,0,2013-03-07 18:20:00
8:50 PM,3.2,-0.4,85,30.30,-9999.0,Variable,1.2,-,N/A,,Clear,0,2013-03-07 18:50:00
9:20 PM,-0.4,-4.0,85,30.30,-9999.0,Calm,Calm,-,N/A,,Clear,0,2013-03-07 19:20:00
9:50 PM,-2.2,-4.0,92,30.27,-9999.0,NNW,3.5,-,N/A,,Clear,330,2013-03-07 19:50:00
10:20 PM,-4.0,-4.0,100,30.27,-9999.0,Variable,1.2,-,N/A,,Clear,0,2013-03-07 20:20:00
10:50 PM,-2.2,-4.0,92,30.27,-9999.0,West,3.5,-,N/A,,Clear,270,2013-03-07 20:50:00
11:20 PM,1.4,-2.2,85,30.27,-9999.0,WNW,5.8,-,N/A,,Clear,300,2013-03-07 21:20:00
11:50 PM,-7.6,-9.4,92,30.27,-9999.0,Variable,1.2,-,N/A,,Clear,0,2013-03-07 21:50:00